パンスターズ彗星

364P/PanSTARRS (2023)

English version
Home page
Updated on May 13, 2024

---------------------------------------------------------------------

・ プロフィール

・ 写真集

・ 軌道要素

Epoch 2023 Feb. 25.0 TT = JDT 2460000.5
T 2023 May 14.01622 TT                                  Rudenko
q   0.8013047            (2000.0)            P               Q
n   0.20161963     Peri.  212.00945     -0.21364480     +0.96507509
a   2.8803649      Node    46.15505     -0.84612625     -0.10523010
e   0.7218044      Incl.   12.13500     -0.48828912     -0.23990976
P   4.89
>From 1017 observations 2013 Feb. 1-2023 Mar. 20, mean residual 0".7.

・ 星図

・ 光度変化

        H = 16.5  G = 0.15                       [   ,-58]  (              〜2023年 3月17日)
        m1 = 16.0 + 5 logΔ + 25.0 log r(t - 5)  [-58,  5]  (2023年 3月17日〜2023年 5月19日)
        m1 = 15.0 + 5 logΔ + 15.0 log r         [  5,118]  (2023年 5月19日〜2023年 9月 9日)
        H = 16.5  G = 0.15                       [118,   ]  (2023年 9月 9日〜              )

---------------------------------------------------------------------

軌道要素はM.P.E.C. 2023-F81に掲載されたものです。
星図はステラナビゲータ Ver.10 (アストロアーツ) で作成したものです。
光度グラフはComet for Windowsで作成したものです。

---------------------------------------------------------------------

Copyright(C) Seiichi Yoshida (comet@aerith.net). All rights reserved.